Theta_e
340 333 331 337 328 328 327 330 337 338 336 335 333 333 334 329 328 331 329 332 333 328
336 333 331 332 337 330 334 328 333 336 336 335 333 333 334 327 328 329 330 330 331 328
332 331 332 333 334 335 335 335 334 334 335 335 334 332 334 331 330 329 326 325 329 328
327 327 329 329 330 332 334 334 333 333 333 333 333 333 333 332 328 326 330 330 327 327
323 324 326 327 328 329 329 330 330 329 329 330 330 332 331 329 327 325 326 326 326 325
321 321 322 322 323 323 323 324 324 325 325 326 326 327 328 328 327 327 329 329 328 328
318 318 318 319 320 320 320 320 320 321 321 321 322 323 324 324 326 329 328 330 329 327
316 316 316 316 316 316 317 316 316 316 316 317 317 316 320 320 321 325 326 328 326 327
313 313 313 313 313 313 313 313 313 313 313 313 313 306 304 309 316 319 319 322 323 326
310 310 310 310 310 310 311 312 312 312 313 313 314 304 302 304 312 313 316 316 317 318
308 307 307 308 308 309 310 311 310 311 312 312 312 302 299 300 309 310 312 315 315 316
306 305 306 306 307 308 308 307 307 307 307 307 307 300 298 299 303 304 305 310 313 314
305 305 305 305 304 304 303 302 302 301 302 302 302 298 296 298 301 303 306 310 311 305
305 303 302 301 300 298 296 294 294 294 295 296 297 298 296 296 299 301 303 304 305 307
Wind_Speed
12 9 8 10 6 7 7 7 8 11 10 11 9 9 8 8 8 7 7 9 9 9
6 3 4 3 5 6 6 6 9 11 12 12 12 11 10 10 9 9 9 8 8 9
3 4 4 5 7 8 8 8 10 11 12 13 13 13 13 11 11 11 10 9 10 10
4 5 6 7 8 10 10 12 12 13 14 15 15 15 13 14 15 15 14 13 13 14
5 5 5 6 8 10 11 13 14 14 15 16 17 16 17 18 17 19 18 18 17 17
5 6 6 6 7 8 10 11 12 13 15 17 18 18 19 19 20 21 20 18 18 18
7 8 8 9 10 11 12 12 13 14 15 16 17 18 18 19 20 20 20 20 20 20
10 11 12 12 13 14 14 14 16 17 18 19 17 15 19 19 20 20 20 20 21 21
13 14 14 15 15 16 16 17 17 18 19 19 15 15 7 10 17 19 20 19 19 20
15 16 17 17 17 17 17 17 18 18 19 20 20 13 10 11 16 19 19 20 19 19
17 17 17 17 18 18 17 17 17 18 18 18 16 10 6 9 16 18 19 19 20 20
17 18 18 18 18 17 16 16 16 16 18 18 18 14 12 11 13 13 16 17 16 18
17 17 18 17 17 15 14 16 14 16 15 16 17 18 15 14 9 15 15 14 15 13
17 17 16 15 14 13 12 13 13 14 14 15 15 15 16 16 12 12 13 12 11 10
Wind_Direction
168 174 185 203 196 204 210 205 196 206 214 219 224 227 233 240 242 248 248 259 269 284
170 227 230 217 229 229 238 238 217 219 221 224 227 228 226 237 235 239 239 250 250 262
193 226 247 259 263 272 277 264 268 227 235 238 236 234 229 236 230 237 237 240 245 251
297 289 279 271 264 260 262 260 257 251 246 242 244 243 242 246 256 238 237 239 240 241
3 334 303 281 277 274 266 263 262 261 258 255 251 247 244 248 249 246 244 242 242 244
332 318 306 294 287 280 275 269 269 268 263 261 258 257 253 252 250 250 252 250 246 243
312 306 297 291 283 279 277 277 273 268 265 263 262 262 262 261 259 255 252 252 251 248
299 293 291 289 287 285 281 276 273 272 268 266 263 259 257 257 258 259 260 258 251 249
296 293 290 286 284 282 279 277 276 274 272 271 269 275 267 276 272 270 270 271 264 257
292 288 286 286 285 282 280 280 276 276 275 274 274 271 267 261 272 268 267 269 269 266
289 289 288 286 283 282 279 277 276 276 277 278 277 272 281 279 279 272 271 266 264 264
294 293 290 286 286 285 284 284 280 278 277 279 284 289 280 273 281 276 263 257 261 262
297 293 290 292 293 291 286 283 287 290 288 288 292 287 265 267 266 266 261 265 266 250
298 300 296 296 298 302 296 289 278 276 272 270 263 267 265 261 267 265 273 273 266 266